DW2149 Weather Reports


time (UTC)temp
C
wind
direction
speed
KPH
gust
KPH
rain 1hr
cm
rain 24hr
cm
rain mn
cm
humidity
%
barometer
mb
20260508213343 26 284 0.0 8.0 0.00 0.00 0.00 46 1013.7
20260508213141 25 210 0.0 8.0 0.00 0.00 0.00 46 1013.7
20260508212930 25 248 0.0 8.0 0.00 0.00 0.00 48 1013.7
20260508212722 25 248 1.6 8.0 0.00 0.00 0.00 47 1013.8
20260508212519 25 248 1.6 8.0 0.00 0.00 0.00 47 1013.7
20260508212124 25 236 0.0 14.5 0.00 0.00 0.00 48 1013.8
20260508211916 25 282 1.6 14.5 0.00 0.00 0.00 47 1013.8
20260508211705 25 311 1.6 14.5 0.00 0.00 0.00 47 1013.9
20260508211128 25 331 3.2 14.5 0.00 0.00 0.00 48 1013.9
20260508210916 25 267 3.2 14.5 0.00 0.00 0.00 49 1013.8
20260508210706 25 296 3.2 14.5 0.00 0.00 0.00 48 1013.9
20260508210459 26 290 1.6 14.5 0.00 0.00 0.00 50 1013.8
20260508210251 26 315 1.6 14.5 0.00 0.00 0.00 48 1013.9
20260508210049 26 284 1.6 9.7 0.00 0.00 0.00 48 1013.9
20260508205837 26 320 1.6 9.7 0.00 0.00 0.00 48 1013.9
20260508205631 26 242 1.6 9.7 0.00 0.00 0.00 49 1013.9
20260508205429 26 279 1.6 9.7 0.00 0.00 0.00 47 1013.8
20260508205219 26 290 1.6 9.7 0.00 0.00 0.00 47 1013.9
20260508205014 26 30 1.6 9.7 0.00 0.00 0.00 48 1013.9
20260508204812 26 229 1.6 9.7 0.00 0.00 0.00 48 1013.8
20260508204609 26 232 0.0 9.7 0.00 0.00 0.00 50 1013.8
20260508204406 26 273 0.0 9.7 0.00 0.00 0.00 48 1013.9
20260508204159 26 253 0.0 8.0 0.00 0.00 0.00 47 1013.9
20260508203810 25 231 1.6 8.0 0.00 0.00 0.00 48 1014.0
20260508203606 25 94 1.6 0.0 0.00 0.00 0.00 49 1014.0
20260508203404 25 94 3.2 11.3 0.00 0.00 0.00 49 1013.9
20260508203200 25 212 3.2 8.0 0.00 0.00 0.00 47 1014.1
20260508202957 25 214 3.2 8.0 0.00 0.00 0.00 46 1014.1
20260508202750 25 281 1.6 8.0 0.00 0.00 0.00 46 1014.1
20260508202354 25 196 1.6 8.0 0.00 0.00 0.00 47 1014.1
20260508202145 25 190 1.6 4.8 0.00 0.00 0.00 47 1014.0
20260508201748 25 184 1.6 11.3 0.00 0.00 0.00 48 1014.1
20260508201400 25 153 1.6 11.3 0.00 0.00 0.00 47 1014.1
20260508201148 26 279 1.6 11.3 0.00 0.00 0.00 46 1014.2
20260508200946 25 230 1.6 9.7 0.00 0.00 0.00 46 1014.2
20260508200742 25 255 0.0 11.3 0.00 0.00 0.00 47 1014.2
20260508200531 25 251 1.6 11.3 0.00 0.00 0.00 47 1014.2
20260508200322 25 270 1.6 11.3 0.00 0.00 0.00 47 1014.1
20260508200116 25 258 1.6 11.3 0.00 0.00 0.00 47 1014.2
20260508195913 25 270 1.6 11.3 0.00 0.00 0.00 47 1014.2
20260508195703 25 270 1.6 9.7 0.00 0.00 0.00 46 1014.2
20260508195456 25 280 1.6 9.7 0.00 0.00 0.00 48 1014.3
20260508195254 26 303 1.6 9.7 0.00 0.00 0.00 45 1014.4
20260508195045 25 252 1.6 9.7 0.00 0.00 0.00 48 1014.2
20260508194843 25 292 0.0 9.7 0.00 0.00 0.00 48 1014.3
20260508194639 25 282 0.0 6.4 0.00 0.00 0.00 48 1014.3
20260508194433 25 281 0.0 6.4 0.00 0.00 0.00 48 1014.4
20260508194231 25 182 1.6 0.0 0.00 0.00 0.00 51 1014.4
20260508194023 25 182 1.6 0.0 0.00 0.00 0.00 49 1014.4
20260508193820 25 182 1.6 9.7 0.00 0.00 0.00 48 1014.5
20260508193609 25 201 1.6 9.7 0.00 0.00 0.00 50 1014.4
20260508193406 25 305 0.0 9.7 0.00 0.00 0.00 47 1014.5
20260508193159 25 312 0.0 0.0 0.00 0.00 0.00 48 1014.5
20260508192804 25 318 0.0 9.7 0.00 0.00 0.00 47 1014.6
20260508192418 25 188 0.0 8.0 0.00 0.00 0.00 45 1014.6
20260508192216 25 188 1.6 8.0 0.00 0.00 0.00 43 1014.6
20260508192004 25 264 1.6 4.8 0.00 0.00 0.00 45 1014.5
20260508191753 25 262 1.6 0.0 0.00 0.00 0.00 45 1014.6
20260508191551 25 262 1.6 8.0 0.00 0.00 0.00 43 1014.6
20260508191346 25 202 0.0 8.0 0.00 0.00 0.00 43 1014.7
20260508191137 25 227 0.0 4.8 0.00 0.00 0.00 44 1014.7
20260508190926 25 289 1.6 4.8 0.00 0.00 0.00 45 1014.7
20260508190722 24 223 1.6 0.0 0.00 0.00 0.00 48 1014.7
20260508190516 24 223 1.6 11.3 0.00 0.00 0.00 49 1014.7
20260508190309 24 223 1.6 11.3 0.00 0.00 0.00 45 1014.7
20260508185707 23 163 0.0 0.0 0.00 0.00 0.00 44 1014.7
20260508185501 23 163 1.6 8.0 0.00 0.00 0.00 43 1014.8
20260508185258 23 161 0.0 8.0 0.00 0.00 0.00 45 1014.9
20260508185052 24 161 0.0 8.0 0.00 0.00 0.00 45 1014.9
20260508184840 24 178 0.0 4.8 0.00 0.00 0.00 45 1014.9
20260508184630 24 174 0.0 4.8 0.00 0.00 0.00 43 1015.0
20260508184235 24 290 1.6 8.0 0.00 0.00 0.00 39 1015.0
20260508184026 24 290 1.6 8.0 0.00 0.00 0.00 39 1015.0
20260508183638 23 311 1.6 8.0 0.00 0.00 0.00 43 1015.0
20260508183240 23 232 0.0 6.4 0.00 0.00 0.00 42 1015.0
20260508183027 23 232 0.0 6.4 0.00 0.00 0.00 44 1015.1
20260508182822 23 299 0.0 6.4 0.00 0.00 0.00 42 1015.1
20260508182613 23 296 0.0 4.8 0.00 0.00 0.00 46 1015.2
20260508182225 22 265 0.0 4.8 0.00 0.00 0.00 40 1015.1
20260508182022 22 211 0.0 1.6 0.00 0.00 0.00 40 1015.2
20260508181818 22 239 0.0 0.0 0.00 0.00 0.00 47 1015.2
20260508181426 22 238 0.0 8.0 0.00 0.00 0.00 43 1015.3
20260508181220 22 244 0.0 8.0 0.00 0.00 0.00 49 1015.2
20260508181009 22 244 0.0 8.0 0.00 0.00 0.00 50 1015.2
20260508180800 22 244 1.6 6.4 0.00 0.00 0.00 51 1015.2
20260508180555 22 244 1.6 6.4 0.00 0.00 0.00 50 1015.3
20260508180346 22 184 1.6 6.4 0.00 0.00 0.00 54 1015.2
20260508180136 22 184 1.6 6.4 0.00 0.00 0.00 54 1015.3
20260508175745 22 221 1.6 4.8 0.00 0.00 0.00 58 1015.3
20260508175543 21 248 1.6 8.0 0.00 0.00 0.00 57 1015.2
20260508175330 21 240 1.6 8.0 0.00 0.00 0.00 59 1015.3
20260508175125 21 278 0.0 6.4 0.00 0.00 0.00 60 1015.3
20260508174736 21 290 0.0 6.4 0.00 0.00 0.00 59 1015.2
20260508174531 21 290 0.0 6.4 0.00 0.00 0.00 62 1015.3
20260508174323 21 258 0.0 4.8 0.00 0.00 0.00 63 1015.2
20260508174115 20 257 0.0 4.8 0.00 0.00 0.00 65 1015.2
20260508173724 20 274 1.6 3.2 0.00 0.00 0.00 66 1015.2
20260508173516 20 296 1.6 1.6 0.00 0.00 0.00 65 1015.2
20260508173312 20 296 1.6 8.0 0.00 0.00 0.00 65 1015.3
20260508173103 20 329 0.0 8.0 0.00 0.00 0.00 65 1015.3
20260508172528 20 229 0.0 1.6 0.00 0.00 0.00 70 1015.2
20260508172322 20 229 0.0 9.7 0.00 0.00 0.00 70 1015.2
20260508172115 20 229 0.0 9.7 0.00 0.00 0.00 70 1015.2
20260508171913 19 229 0.0 9.7 0.00 0.00 0.00 71 1015.2
20260508171701 19 229 0.0 9.7 0.00 0.00 0.00 72 1015.3
20260508171449 19 198 0.0 9.7 0.00 0.00 0.00 73 1015.2
20260508171242 18 225 0.0 9.7 0.00 0.00 0.00 74 1015.2
20260508170846 18 223 0.0 9.7 0.00 0.00 0.00 76 1015.3
20260508170459 17 228 1.6 8.0 0.00 0.00 0.00 81 1015.3
20260508170257 17 246 1.6 8.0 0.00 0.00 0.00 83 1015.3
20260508170045 17 251 1.6 8.0 0.00 0.00 0.00 86 1015.2
20260508165833 17 248 1.6 8.0 0.00 0.00 0.00 88 1015.2
20260508165631 16 248 1.6 8.0 0.00 0.00 0.00 89 1015.2
20260508165424 16 231 0.0 8.0 0.00 0.00 0.00 90 1015.2
20260508165218 16 242 0.0 3.2 0.00 0.00 0.00 91 1015.1
20260508165005 16 242 0.0 3.2 0.00 0.00 0.00 91 1015.1
20260508164753 16 221 0.0 3.2 0.00 0.00 0.00 91 1015.2
20260508164550 15 221 0.0 3.2 0.00 0.00 0.00 92 1015.2
20260508164343 15 221 0.0 0.0 0.00 0.00 0.00 92 1015.2
20260508163956 15 221 0.0 0.0 0.00 0.00 0.00 92 1015.2
20260508163744 15 221 0.0 0.0 0.00 0.00 0.00 92 1015.3
20260508163532 15 221 0.0 4.8 0.00 0.00 0.00 92 1015.3
20260508163324 15 221 0.0 4.8 0.00 0.00 0.00 92 1015.3
20260508163117 15 221 0.0 4.8 0.00 0.00 0.00 92 1015.3
20260508162905 15 221 0.0 0.0 0.00 0.00 0.00 92 1015.3
20260508162659 15 221 0.0 0.0 0.00 0.00 0.00 92 1015.4
20260508162449 14 221 0.0 3.2 0.00 0.00 0.00 92 1015.3
20260508162058 14 221 0.0 0.0 0.00 0.00 0.00 92 1015.3
20260508161855 14 221 0.0 0.0 0.00 0.00 0.00 92 1015.4
20260508161645 13 221 0.0 0.0 0.00 0.00 0.00 92 1015.3
20260508161435 13 221 0.0 0.0 0.00 0.00 0.00 92 1015.4
20260508161231 13 221 0.0 0.0 0.00 0.00 0.00 92 1015.3
20260508161019 13 221 0.0 0.0 0.00 0.00 0.00 92 1015.3
20260508160624 13 221 0.0 0.0 0.00 0.00 0.00 92 1015.3
20260508160413 13 221 0.0 0.0 0.00 0.00 0.00 92 1015.3
20260508160203 13 221 0.0 0.0 0.00 0.00 0.00 91 1015.3
20260508155958 13 221 0.0 0.0 0.00 0.00 0.00 91 1015.4
20260508155750 13 221 0.0 0.0 0.00 0.00 0.00 91 1015.4
20260508155540 12 221 0.0 0.0 0.00 0.00 0.00 91 1015.4
20260508155329 12 221 0.0 0.0 0.00 0.00 0.00 91 1015.3
20260508155118 12 221 0.0 0.0 0.00 0.00 0.00 91 1015.4
20260508154914 12 221 0.0 0.0 0.00 0.00 0.00 91 1015.4
20260508154702 12 221 0.0 0.0 0.00 0.00 0.00 91 1015.5
20260508154449 12 221 0.0 0.0 0.00 0.00 0.00 91 1015.5
20260508154248 12 221 0.0 0.0 0.00 0.00 0.00 91 1015.6
20260508154037 12 221 0.0 0.0 0.00 0.00 0.00 91 1015.5
20260508153648 12 221 0.0 0.0 0.00 0.00 0.00 91 1015.5
20260508153438 12 221 0.0 0.0 0.00 0.00 0.00 91 1015.5
20260508153230 11 221 0.0 0.0 0.00 0.00 0.00 91 1015.5
20260508153019 11 221 0.0 0.0 0.00 0.00 0.00 91 1015.6
20260508152807 11 221 0.0 0.0 0.00 0.00 0.00 91 1015.6
20260508152600 11 221 0.0 0.0 0.00 0.00 0.00 91 1015.6
20260508152022 11 221 0.0 0.0 0.00 0.00 0.00 90 1015.6
20260508151814 11 221 0.0 0.0 0.00 0.00 0.00 90 1015.6
20260508151427 11 221 0.0 0.0 0.00 0.00 0.00 90 1015.5
20260508151220 11 221 0.0 0.0 0.00 0.00 0.00 90 1015.5
20260508151016 11 221 0.0 0.0 0.00 0.00 0.00 90 1015.5
20260508150625 11 221 0.0 0.0 0.00 0.00 0.00 90 1015.6
20260508150413 11 221 0.0 0.0 0.00 0.00 0.00 90 1015.5
20260508150209 11 221 0.0 0.0 0.00 0.00 0.00 90 1015.6
20260508150006 11 221 0.0 0.0 0.00 0.00 0.00 90 1015.7
20260508145804 11 221 0.0 0.0 0.00 0.00 0.00 90 1015.6
20260508145555 10 221 0.0 0.0 0.00 0.00 0.00 90 1015.6
20260508145346 10 221 0.0 0.0 0.00 0.00 0.00 90 1015.6
20260508145142 10 221 0.0 0.0 0.00 0.00 0.00 90 1015.6
20260508144756 10 221 0.0 0.0 0.00 0.00 0.00 90 1015.6
20260508144554 10 221 0.0 0.0 0.00 0.00 0.00 90 1015.6
20260508144202 10 221 0.0 0.0 0.00 0.00 0.00 90 1015.6
20260508143952 10 221 0.0 0.0 0.00 0.00 0.00 90 1015.6
20260508143750 10 221 0.0 0.0 0.00 0.00 0.00 90 1015.6
20260508143546 10 221 0.0 0.0 0.00 0.00 0.00 90 1015.6
20260508143337 10 221 0.0 0.0 0.00 0.00 0.00 90 1015.6
20260508142949 10 221 0.0 0.0 0.00 0.00 0.00 90 1015.6
20260508142742 10 221 0.0 0.0 0.00 0.00 0.00 90 1015.6
20260508142351 10 221 0.0 0.0 0.00 0.00 0.00 90 1015.5
20260508142139 10 221 0.0 0.0 0.00 0.00 0.00 90 1015.6
20260508141935 10 221 0.0 0.0 0.00 0.00 0.00 90 1015.5
20260508141727 10 221 0.0 0.0 0.00 0.00 0.00 89 1015.5
20260508141521 10 221 0.0 0.0 0.00 0.00 0.00 89 1015.6
20260508141314 10 221 0.0 0.0 0.00 0.00 0.00 89 1015.5
20260508141104 10 221 0.0 0.0 0.00 0.00 0.00 89 1015.5
20260508140854 10 221 0.0 0.0 0.00 0.00 0.00 89 1015.5
20260508140649 10 221 0.0 0.0 0.00 0.00 0.00 89 1015.5
20260508140441 10 221 0.0 0.0 0.00 0.00 0.00 89 1015.5
20260508140231 10 221 0.0 0.0 0.00 0.00 0.00 89 1015.5
20260508140019 10 221 0.0 0.0 0.00 0.00 0.00 89 1015.6
20260508135623 10 221 0.0 0.0 0.00 0.00 0.00 89 1015.5
20260508135414 10 221 0.0 0.0 0.00 0.00 0.00 89 1015.5
20260508135025 10 221 0.0 0.0 0.00 0.00 0.00 89 1015.5
20260508134819 10 221 0.0 0.0 0.00 0.00 0.00 89 1015.5
20260508134613 10 221 0.0 0.0 0.00 0.00 0.00 89 1015.5
20260508134403 10 221 0.0 0.0 0.00 0.00 0.00 89 1015.5
20260508134155 10 221 0.0 0.0 0.00 0.00 0.00 89 1015.5
20260508133806 10 221 0.0 0.0 0.00 0.00 0.00 89 1015.4
20260508133556 10 221 0.0 0.0 0.00 0.00 0.00 89 1015.3
20260508133350 10 221 0.0 0.0 0.00 0.00 0.00 89 1015.5
20260508133137 10 221 0.0 0.0 0.00 0.00 0.00 89 1015.4
20260508132928 10 221 0.0 0.0 0.00 0.00 0.00 89 1015.3
20260508132656 10 221 0.0 0.0 0.00 0.00 0.00 89 1015.4
20260508132443 10 221 0.0 0.0 0.00 0.00 0.00 89 1015.3
20260508131726 10 221 0.0 0.0 0.00 0.00 0.00 89 1015.3
20260508131519 10 221 0.0 0.0 0.00 0.00 0.00 89 1015.3
20260508131312 10 221 0.0 0.0 0.00 0.00 0.00 89 1015.3
20260508131104 10 221 0.0 0.0 0.00 0.00 0.00 89 1015.3
20260508130901 10 221 0.0 0.0 0.00 0.00 0.00 89 1015.3
20260508130650 10 221 0.0 0.0 0.00 0.00 0.00 89 1015.3
20260508130437 10 221 0.0 0.0 0.00 0.00 0.00 89 1015.2
20260508130231 10 221 0.0 0.0 0.00 0.00 0.00 89 1015.3
20260508130021 10 221 0.0 0.0 0.00 0.00 0.00 89 1015.2
20260508125819 10 221 0.0 0.0 0.00 0.00 0.00 89 1015.2
20260508125607 10 221 0.0 0.0 0.00 0.00 0.00 89 1015.2
20260508125356 10 221 0.0 0.0 0.00 0.00 0.00 89 1015.2
20260508125150 10 221 0.0 0.0 0.00 0.00 0.00 89 1015.2
20260508124937 10 221 0.0 0.0 0.00 0.00 0.00 89 1015.2
20260508124548 10 221 0.0 0.0 0.00 0.00 0.00 89 1015.2
20260508124337 10 221 0.0 0.0 0.00 0.00 0.00 89 1015.2
20260508124127 10 221 0.0 0.0 0.00 0.00 0.00 89 1015.2
20260508123917 10 221 0.0 0.0 0.00 0.00 0.00 89 1015.2
20260508123521 10 221 0.0 0.0 0.00 0.00 0.00 89 1015.2
20260508123318 10 221 0.0 0.0 0.00 0.00 0.00 89 1015.2
20260508122742 10 221 0.0 0.0 0.00 0.00 0.00 89 1015.0
20260508122539 10 221 0.0 0.0 0.00 0.00 0.00 89 1015.1
20260508122330 10 221 0.0 0.0 0.00 0.00 0.00 89 1015.1
20260508122127 10 221 0.0 0.0 0.00 0.00 0.00 89 1015.0
20260508121733 10 221 0.0 0.0 0.00 0.00 0.00 89 1015.0
20260508121530 10 221 0.0 0.0 0.00 0.00 0.00 89 1015.0
20260508121324 10 221 0.0 0.0 0.00 0.00 0.00 89 1015.1
20260508121122 10 221 0.0 0.0 0.00 0.00 0.00 89 1015.0
20260508120917 10 221 0.0 0.0 0.00 0.00 0.00 89 1015.0
20260508120707 10 221 0.0 0.0 0.00 0.00 0.00 89 1015.0
20260508120503 10 221 0.0 0.0 0.00 0.00 0.00 89 1015.0
20260508120253 10 221 0.0 0.0 0.00 0.00 0.00 89 1015.0
20260508120047 10 221 0.0 0.0 0.00 0.00 0.00 89 1015.1
20260508115844 10 221 0.0 0.0 0.00 0.00 0.00 89 1015.1
20260508115631 10 221 0.0 0.0 0.00 0.00 0.00 89 1015.1
20260508115427 10 221 0.0 0.0 0.00 0.00 0.00 89 1015.1
20260508115223 10 221 0.0 0.0 0.00 0.00 0.00 88 1015.1
20260508115016 10 221 0.0 0.0 0.00 0.00 0.00 89 1015.2
20260508114806 10 221 0.0 0.0 0.00 0.00 0.00 88 1015.1
20260508114554 10 221 0.0 0.0 0.00 0.00 0.00 88 1015.1
20260508114348 10 221 0.0 0.0 0.00 0.00 0.00 88 1015.1
20260508113951 10 221 0.0 0.0 0.00 0.00 0.00 88 1015.0
20260508113749 10 221 0.0 0.0 0.00 0.00 0.00 88 1015.1
20260508113543 10 221 0.0 0.0 0.00 0.00 0.00 88 1015.1
20260508113157 10 221 0.0 0.0 0.00 0.00 0.00 88 1015.0
20260508112951 10 221 0.0 0.0 0.00 0.00 0.00 88 1015.1
20260508112739 10 221 0.0 0.0 0.00 0.00 0.00 88 1015.0
20260508112531 10 221 0.0 0.0 0.00 0.00 0.00 88 1015.1
20260508112321 10 221 0.0 0.0 0.00 0.00 0.00 88 1015.1
20260508112119 11 221 0.0 0.0 0.00 0.00 0.00 88 1015.1
20260508111914 11 221 0.0 0.0 0.00 0.00 0.00 88 1015.0
20260508111706 11 221 0.0 0.0 0.00 0.00 0.00 88 1015.0
20260508111501 11 221 0.0 0.0 0.00 0.00 0.00 88 1015.1
20260508111249 11 221 0.0 0.0 0.00 0.00 0.00 88 1015.1
20260508111044 11 221 0.0 0.0 0.00 0.00 0.00 88 1015.1
20260508110843 11 221 0.0 0.0 0.00 0.00 0.00 88 1015.1
20260508110455 11 221 0.0 0.0 0.00 0.00 0.00 88 1015.1
20260508110247 11 221 0.0 0.0 0.00 0.00 0.00 88 1015.0
20260508110042 11 221 0.0 0.0 0.00 0.00 0.00 88 1015.0
20260508105832 11 221 0.0 0.0 0.00 0.00 0.00 88 1015.1
20260508105625 11 221 0.0 0.0 0.00 0.00 0.00 88 1015.0
20260508105417 11 221 0.0 0.0 0.00 0.00 0.00 88 1015.0
20260508105208 11 221 0.0 0.0 0.00 0.00 0.00 88 1015.0
20260508105001 11 221 0.0 0.0 0.00 0.00 0.00 88 1015.0
20260508104753 11 221 0.0 0.0 0.00 0.00 0.00 88 1014.9
20260508104404 11 221 0.0 0.0 0.00 0.00 0.00 88 1015.0
20260508104202 11 221 0.0 0.0 0.00 0.00 0.00 88 1015.0
20260508103806 11 221 0.0 0.0 0.00 0.00 0.00 88 1014.9
20260508103556 11 221 0.0 0.0 0.00 0.00 0.00 88 1015.0
20260508103350 11 221 0.0 0.0 0.00 0.00 0.00 88 1015.0
20260508103148 11 221 0.0 0.0 0.00 0.00 0.00 88 1014.9
20260508102942 11 221 0.0 0.0 0.00 0.00 0.00 88 1015.0
20260508102741 11 221 0.0 0.0 0.00 0.00 0.00 88 1014.9
20260508102531 11 221 0.0 0.0 0.00 0.00 0.00 88 1014.9
20260508102137 11 221 0.0 0.0 0.00 0.00 0.00 88 1014.9
20260508101750 11 221 0.0 0.0 0.00 0.00 0.00 88 1014.9
20260508101546 11 221 0.0 0.0 0.00 0.00 0.00 88 1014.9
20260508101341 11 221 0.0 0.0 0.00 0.00 0.00 88 1014.9
20260508100948 11 221 0.0 0.0 0.00 0.00 0.00 88 1014.9
20260508100557 11 221 0.0 0.0 0.00 0.00 0.00 88 1014.9
20260508100345 11 221 0.0 0.0 0.00 0.00 0.00 87 1014.9
20260508095626 11 221 0.0 0.0 0.00 0.00 0.00 88 1014.9
20260508095422 11 221 0.0 0.0 0.00 0.00 0.00 88 1014.9
20260508095221 11 221 0.0 0.0 0.00 0.00 0.00 88 1014.9
20260508095012 11 221 0.0 0.0 0.00 0.00 0.00 88 1014.9
20260508094759 11 221 0.0 0.0 0.00 0.00 0.00 88 1014.9
20260508094557 11 221 0.0 0.0 0.00 0.00 0.00 87 1014.9
20260508094352 11 221 0.0 0.0 0.00 0.00 0.00 87 1014.8
20260508094139 11 221 0.0 0.0 0.00 0.00 0.00 87 1014.9
20260508093927 11 221 0.0 0.0 0.00 0.00 0.00 87 1014.9
20260508093725 11 221 0.0 0.0 0.00 0.00 0.00 87 1014.9
20260508093515 11 221 0.0 0.0 0.00 0.00 0.00 87 1014.9
20260508093304 11 221 0.0 0.0 0.00 0.00 0.00 87 1014.9
20260508093053 11 221 0.0 0.0 0.00 0.00 0.00 87 1014.9
20260508092850 11 221 0.0 0.0 0.00 0.00 0.00 87 1014.9
20260508092645 11 221 0.0 0.0 0.00 0.00 0.00 87 1014.9
20260508092436 11 221 0.0 0.0 0.00 0.00 0.00 87 1014.9
20260508092233 11 221 0.0 0.0 0.00 0.00 0.00 87 1015.0
20260508091655 11 221 0.0 0.0 0.00 0.00 0.00 87 1015.0
20260508091306 11 221 0.0 0.0 0.00 0.00 0.00 87 1014.9
20260508091100 11 221 0.0 0.0 0.00 0.00 0.00 87 1014.9
20260508090851 11 221 0.0 0.0 0.00 0.00 0.00 87 1014.9
20260508090643 11 221 0.0 0.0 0.00 0.00 0.00 87 1014.9
20260508090442 11 221 0.0 0.0 0.00 0.00 0.00 87 1014.9
20260508090229 11 221 0.0 0.0 0.00 0.00 0.00 87 1015.0
20260508090025 11 221 0.0 0.0 0.00 0.00 0.00 87 1015.0
20260508085816 11 221 0.0 0.0 0.00 0.00 0.00 87 1015.0
20260508085611 11 221 0.0 0.0 0.00 0.00 0.00 87 1015.0
20260508085359 11 221 0.0 0.0 0.00 0.00 0.00 87 1015.0
20260508085150 11 221 0.0 0.0 0.00 0.00 0.00 87 1015.0
20260508084803 11 221 0.0 0.0 0.00 0.00 0.00 87 1015.1
20260508084559 11 221 0.0 0.0 0.00 0.00 0.00 87 1015.1
20260508084352 11 221 0.0 0.0 0.00 0.00 0.00 86 1015.1
20260508083959 11 221 0.0 0.0 0.00 0.00 0.00 86 1015.2
20260508083748 11 221 0.0 0.0 0.00 0.00 0.00 86 1015.2
20260508083539 11 221 0.0 0.0 0.00 0.00 0.00 86 1015.2
20260508083332 11 221 0.0 0.0 0.00 0.00 0.00 86 1015.2
20260508083120 11 221 0.0 0.0 0.00 0.00 0.00 86 1015.3
20260508082726 11 221 0.0 0.0 0.00 0.00 0.00 86 1015.3
20260508082338 11 221 0.0 0.0 0.00 0.00 0.00 86 1015.4
20260508082131 11 221 0.0 0.0 0.00 0.00 0.00 86 1015.4
20260508081735 11 221 0.0 0.0 0.00 0.00 0.00 86 1015.4
20260508081530 11 221 0.0 0.0 0.00 0.00 0.00 86 1015.5
20260508081317 11 221 0.0 0.0 0.00 0.00 0.00 86 1015.6
20260508081112 11 221 0.0 0.0 0.00 0.00 0.00 86 1015.6
20260508080904 12 221 0.0 0.0 0.00 0.00 0.00 86 1015.6
20260508080659 12 221 0.0 0.0 0.00 0.00 0.00 86 1015.6
20260508080452 12 221 0.0 0.0 0.00 0.00 0.00 86 1015.6
20260508080246 12 221 0.0 0.0 0.00 0.00 0.00 86 1015.6
20260508075855 12 221 0.0 0.0 0.00 0.00 0.00 86 1015.7
20260508075646 12 221 0.0 0.0 0.00 0.00 0.00 86 1015.6
20260508075437 12 221 0.0 0.0 0.00 0.00 0.00 86 1015.6
20260508075051 12 221 0.0 0.0 0.00 0.00 0.00 86 1015.6
20260508074845 12 221 0.0 0.0 0.00 0.00 0.00 86 1015.6
20260508074637 12 221 0.0 0.0 0.00 0.00 0.00 85 1015.6
20260508074429 12 221 0.0 0.0 0.00 0.00 0.00 85 1015.6
20260508074226 12 221 0.0 0.0 0.00 0.00 0.00 85 1015.6
20260508074014 12 221 0.0 0.0 0.00 0.00 0.00 85 1015.6
20260508073805 12 221 0.0 0.0 0.00 0.00 0.00 85 1015.6
20260508073602 12 221 0.0 0.0 0.00 0.00 0.00 85 1015.6
20260508073355 12 221 0.0 0.0 0.00 0.00 0.00 85 1015.6
20260508073154 12 221 0.0 0.0 0.00 0.00 0.00 85 1015.6
20260508072948 12 221 0.0 0.0 0.00 0.00 0.00 85 1015.6
20260508072744 12 221 0.0 0.0 0.00 0.00 0.00 85 1015.6
20260508072352 12 221 0.0 0.0 0.00 0.00 0.00 85 1015.6
20260508072150 12 221 0.0 0.0 0.00 0.00 0.00 85 1015.6
20260508071943 12 221 0.0 0.0 0.00 0.00 0.00 85 1015.5
20260508071736 12 221 0.0 0.0 0.00 0.00 0.00 85 1015.5
20260508071526 12 221 0.0 0.0 0.00 0.00 0.00 85 1015.4
20260508071139 12 221 0.0 0.0 0.00 0.00 0.00 84 1015.4
20260508070931 12 221 0.0 0.0 0.00 0.00 0.00 85 1015.4
20260508070721 12 221 0.0 0.0 0.00 0.00 0.00 85 1015.4
20260508070519 12 221 0.0 0.0 0.00 0.00 0.00 84 1015.4
20260508070308 12 221 0.0 0.0 0.00 0.00 0.00 84 1015.4
20260508070104 12 221 0.0 0.0 0.00 0.00 0.00 84 1015.4
20260508065857 12 221 0.0 0.0 0.00 0.00 0.00 84 1015.4
20260508065646 12 221 0.0 0.0 0.00 0.00 0.00 84 1015.4
20260508065434 12 221 0.0 0.0 0.00 0.00 0.00 84 1015.4
20260508065231 12 221 0.0 0.0 0.00 0.00 0.00 84 1015.4
20260508064843 12 221 0.0 0.0 0.00 0.00 0.00 84 1015.4
20260508064634 12 221 0.0 0.0 0.00 0.00 0.00 84 1015.3
20260508064422 12 221 0.0 0.0 0.00 0.00 0.00 84 1015.3
20260508064209 13 221 0.0 0.0 0.00 0.00 0.00 84 1015.3
20260508063958 13 221 0.0 0.0 0.00 0.00 0.00 84 1015.3
20260508063751 13 221 0.0 0.0 0.00 0.00 0.00 84 1015.3
20260508063355 13 221 0.0 0.0 0.00 0.00 0.00 84 1015.3
20260508062959 13 221 0.0 0.0 0.00 0.00 0.00 84 1015.3
20260508062749 13 221 0.0 0.0 0.00 0.00 0.00 84 1015.3
20260508062538 13 221 0.0 0.0 0.00 0.00 0.00 84 1015.3
20260508062327 13 221 0.0 0.0 0.00 0.00 0.00 84 1015.3
20260508062114 13 221 0.0 0.0 0.00 0.00 0.00 84 1015.4
20260508061906 13 221 0.0 0.0 0.00 0.00 0.00 83 1015.4
20260508061513 13 221 0.0 0.0 0.00 0.00 0.00 83 1015.4
20260508061124 13 221 0.0 0.0 0.00 0.00 0.00 83 1015.3
20260508060921 13 221 0.0 0.0 0.00 0.00 0.00 83 1015.3
20260508060712 13 221 0.0 0.0 0.00 0.00 0.00 83 1015.3
20260508060314 13 221 0.0 0.0 0.00 0.00 0.00 83 1015.2
20260508060111 13 221 0.0 0.0 0.00 0.00 0.00 83 1015.3
20260508055858 13 221 0.0 0.0 0.00 0.00 0.00 83 1015.3
20260508055651 13 221 0.0 0.0 0.00 0.00 0.00 83 1015.3
20260508055448 13 221 0.0 0.0 0.00 0.00 0.00 83 1015.3
20260508055242 13 221 0.0 0.0 0.00 0.00 0.00 82 1015.3
20260508055039 13 221 0.0 0.0 0.00 0.00 0.00 82 1015.3
20260508054828 13 221 0.0 0.0 0.00 0.00 0.00 82 1015.3
20260508054619 13 221 0.0 0.0 0.00 0.00 0.00 82 1015.3
20260508054415 13 221 0.0 0.0 0.00 0.00 0.00 82 1015.3
20260508054207 13 221 0.0 0.0 0.00 0.00 0.00 82 1015.3
20260508053958 13 221 0.0 0.0 0.00 0.00 0.00 82 1015.3
20260508053750 14 221 0.0 0.0 0.00 0.00 0.00 82 1015.3
20260508053543 14 221 0.0 0.0 0.00 0.00 0.00 82 1015.3
20260508053332 14 221 0.0 0.0 0.00 0.00 0.00 82 1015.2
20260508052944 14 221 0.0 0.0 0.00 0.00 0.00 82 1015.2
20260508052732 14 221 0.0 0.0 0.00 0.00 0.00 82 1015.3
20260508052530 14 221 0.0 0.0 0.00 0.00 0.00 81 1015.2
20260508052324 14 221 0.0 0.0 0.00 0.00 0.00 81 1015.2
20260508051929 14 221 0.0 0.0 0.00 0.00 0.00 81 1015.2
20260508051724 14 221 0.0 0.0 0.00 0.00 0.00 81 1015.2
20260508051517 14 221 0.0 0.0 0.00 0.00 0.00 81 1015.2
20260508051312 14 221 0.0 0.0 0.00 0.00 0.00 81 1015.2
20260508050923 15 221 0.0 0.0 0.00 0.00 0.00 80 1015.2
20260508050711 15 221 0.0 0.0 0.00 0.00 0.00 80 1015.2
20260508050505 15 221 0.0 0.0 0.00 0.00 0.00 80 1015.2
20260508050255 15 221 0.0 0.0 0.00 0.00 0.00 80 1015.1
20260508050046 15 221 0.0 0.0 0.00 0.00 0.00 80 1015.2
20260508045835 15 221 0.0 0.0 0.00 0.00 0.00 80 1015.2
20260508045630 15 221 0.0 0.0 0.00 0.00 0.00 80 1015.2
20260508045425 15 221 0.0 0.0 0.00 0.00 0.00 80 1015.2
20260508045222 15 221 0.0 0.0 0.00 0.00 0.00 79 1015.2
20260508045013 15 221 0.0 0.0 0.00 0.00 0.00 79 1015.2
20260508044804 15 221 0.0 0.0 0.00 0.00 0.00 79 1015.2
20260508044554 15 221 0.0 0.0 0.00 0.00 0.00 79 1015.2
20260508044347 15 221 0.0 0.0 0.00 0.00 0.00 79 1015.2
20260508044136 15 221 0.0 0.0 0.00 0.00 0.00 79 1015.2
20260508043740 15 221 0.0 0.0 0.00 0.00 0.00 78 1015.2
20260508043531 15 221 0.0 0.0 0.00 0.00 0.00 78 1015.2
20260508043135 15 221 0.0 0.0 0.00 0.00 0.00 78 1015.2
20260508042924 16 221 0.0 0.0 0.00 0.00 0.00 77 1015.1
20260508042720 16 221 0.0 0.0 0.00 0.00 0.00 77 1015.2
20260508042510 16 221 0.0 0.0 0.00 0.00 0.00 77 1015.2
20260508042258 16 221 0.0 0.0 0.00 0.00 0.00 77 1015.1
20260508042053 16 221 0.0 0.0 0.00 0.00 0.00 77 1015.1
20260508041851 16 221 0.0 0.0 0.00 0.00 0.00 76 1015.0
20260508041640 16 221 0.0 0.0 0.00 0.00 0.00 76 1015.0
20260508041247 16 221 0.0 0.0 0.00 0.00 0.00 76 1014.9
20260508041039 16 221 0.0 0.0 0.00 0.00 0.00 76 1014.9
20260508040834 16 221 0.0 0.0 0.00 0.00 0.00 76 1014.8
20260508040624 16 221 0.0 0.0 0.00 0.00 0.00 75 1014.8
20260508040420 16 221 0.0 0.0 0.00 0.00 0.00 75 1014.8
20260508040209 16 221 0.0 0.0 0.00 0.00 0.00 75 1014.8
20260508035823 17 221 0.0 0.0 0.00 0.00 0.00 75 1014.7
20260508035621 17 221 0.0 0.0 0.00 0.00 0.00 74 1014.8
20260508035408 17 221 0.0 0.0 0.00 0.00 0.00 74 1014.7
20260508035011 17 221 0.0 0.0 0.00 0.00 0.00 74 1014.7
20260508034759 17 221 0.0 0.0 0.00 0.00 0.00 74 1014.6
20260508034550 17 221 0.0 0.0 0.00 0.00 0.00 74 1014.5
20260508034345 17 221 0.0 0.0 0.00 0.00 0.00 73 1014.6
20260508034142 17 221 0.0 0.0 0.00 0.00 0.00 73 1014.5
20260508033934 17 221 0.0 0.0 0.00 0.00 0.00 73 1014.5
20260508033732 17 221 0.0 0.0 0.00 0.00 0.00 73 1014.4
20260508033342 18 221 0.0 0.0 0.00 0.00 0.00 72 1014.5
20260508033130 18 221 0.0 0.0 0.00 0.00 0.00 72 1014.5
20260508032923 18 221 0.0 0.0 0.00 0.00 0.00 72 1014.4
20260508032713 18 221 0.0 0.0 0.00 0.00 0.00 72 1014.4
20260508032506 18 221 0.0 0.0 0.00 0.00 0.00 71 1014.4
20260508032257 18 221 0.0 0.0 0.00 0.00 0.00 72 1014.3
20260508032054 18 221 0.0 0.0 0.00 0.00 0.00 71 1014.2
20260508031846 18 221 0.0 0.0 0.00 0.00 0.00 71 1014.2
20260508031638 18 221 0.0 0.0 0.00 0.00 0.00 71 1014.2
20260508031425 19 221 0.0 0.0 0.00 0.00 0.00 71 1014.2
20260508031212 19 221 0.0 0.0 0.00 0.00 0.00 71 1014.2
20260508031006 19 221 0.0 0.0 0.00 0.00 0.00 70 1014.2
20260508030802 19 221 0.0 0.0 0.00 0.00 0.00 70 1014.2
20260508030551 19 221 0.0 0.0 0.00 0.00 0.00 70 1014.2
20260508030339 19 221 0.0 0.0 0.00 0.00 0.00 70 1014.3
20260508030132 20 221 0.0 0.0 0.00 0.00 0.00 70 1014.2
20260508025928 20 221 0.0 0.0 0.00 0.00 0.00 70 1014.2
20260508025721 20 221 0.0 0.0 0.00 0.00 0.00 70 1014.2
20260508025517 20 221 0.0 0.0 0.00 0.00 0.00 69 1014.2
20260508025313 20 221 0.0 0.0 0.00 0.00 0.00 70 1014.1
20260508024919 20 221 0.0 0.0 0.00 0.00 0.00 69 1014.1
20260508024531 20 221 0.0 0.0 0.00 0.00 0.00 68 1014.2
20260508024324 20 221 0.0 0.0 0.00 0.00 0.00 68 1014.1
20260508023937 20 221 0.0 0.0 0.00 0.00 0.00 68 1014.0
20260508023732 21 221 0.0 0.0 0.00 0.00 0.00 68 1014.0
20260508023520 21 221 0.0 0.0 0.00 0.00 0.00 68 1014.0
20260508023318 21 221 0.0 0.0 0.00 0.00 0.00 67 1014.0
20260508023107 21 221 0.0 0.0 0.00 0.00 0.00 67 1013.9
20260508022857 21 221 0.0 0.0 0.00 0.00 0.00 67 1013.9
20260508022645 21 221 0.0 0.0 0.00 0.00 0.00 67 1013.9
20260508022442 21 221 0.0 0.0 0.00 0.00 0.00 66 1013.9
20260508022229 21 221 0.0 0.0 0.00 0.00 0.00 66 1014.0
20260508022019 21 221 0.0 0.0 0.00 0.00 0.00 65 1013.9
20260508021811 22 221 0.0 0.0 0.00 0.00 0.00 65 1013.9
20260508021605 22 221 0.0 0.0 0.00 0.00 0.00 65 1013.8
20260508021359 22 221 0.0 0.0 0.00 0.00 0.00 65 1013.9
20260508021148 22 221 0.0 0.0 0.00 0.00 0.00 64 1013.9
20260508020940 22 221 0.0 1.6 0.00 0.00 0.00 64 1013.8
20260508020735 22 221 0.0 0.0 0.00 0.00 0.00 63 1013.8
20260508020531 22 221 0.0 1.6 0.00 0.00 0.00 64 1013.8
20260508020141 23 221 0.0 0.0 0.00 0.00 0.00 63 1013.8
20260508015939 23 221 0.0 1.6 0.00 0.00 0.00 63 1013.8
20260508015732 23 221 0.0 0.0 0.00 0.00 0.00 62 1013.8
20260508015530 23 221 0.0 0.0 0.00 0.00 0.00 62 1013.8
20260508015326 23 221 0.0 0.0 0.00 0.00 0.00 61 1013.8
20260508014937 23 221 0.0 0.0 0.00 0.00 0.00 61 1013.8
20260508014728 23 221 0.0 0.0 0.00 0.00 0.00 61 1013.8
20260508014522 23 221 0.0 0.0 0.00 0.00 0.00 61 1013.8
20260508014317 24 221 0.0 0.0 0.00 0.00 0.00 59 1013.8
20260508013924 24 221 0.0 1.6 0.00 0.00 0.00 59 1013.8
20260508013716 24 220 0.0 0.0 0.00 0.00 0.00 59 1013.8
20260508013328 24 220 0.0 0.0 0.00 0.00 0.00 58 1013.7
20260508013124 24 220 0.0 6.4 0.00 0.00 0.00 57 1013.8
20260508012923 24 220 0.0 6.4 0.00 0.00 0.00 58 1013.8
20260508012716 24 250 0.0 6.4 0.00 0.00 0.00 57 1013.7
20260508012508 25 253 0.0 0.0 0.00 0.00 0.00 57 1013.7
20260508012306 25 253 0.0 3.2 0.00 0.00 0.00 56 1013.7
20260508012055 25 271 0.0 0.0 0.00 0.00 0.00 56 1013.8
20260508011846 25 271 0.0 1.6 0.00 0.00 0.00 55 1013.7
20260508011638 25 271 0.0 0.0 0.00 0.00 0.00 56 1013.8
20260508011434 25 271 0.0 0.0 0.00 0.00 0.00 55 1013.7
20260508011036 25 315 0.0 6.4 0.00 0.00 0.00 55 1013.8
20260508010832 25 269 0.0 6.4 0.00 0.00 0.00 55 1013.9
20260508010620 25 326 0.0 4.8 0.00 0.00 0.00 56 1013.8
20260508010416 25 321 0.0 4.8 0.00 0.00 0.00 56 1013.9
20260508010213 25 306 0.0 1.6 0.00 0.00 0.00 57 1013.9
20260508005827 25 306 0.0 0.0 0.00 0.00 0.00 59 1013.8
20260508005615 25 306 0.0 0.0 0.00 0.00 0.00 55 1013.8
20260508005402 25 306 0.0 0.0 0.00 0.00 0.00 57 1013.9
20260508005154 25 306 0.0 9.7 0.00 0.00 0.00 56 1013.9
20260508004946 25 306 0.0 9.7 0.00 0.00 0.00 56 1013.8
20260508004738 25 238 0.0 9.7 0.00 0.00 0.00 56 1013.9
20260508004530 25 237 0.0 9.7 0.00 0.00 0.00 56 1013.9
20260508004320 25 232 0.0 9.7 0.00 0.00 0.00 56 1013.9
20260508004117 25 231 0.0 9.7 0.00 0.00 0.00 55 1013.9
20260508003911 25 225 0.0 9.7 0.00 0.00 0.00 56 1014.0
20260508003707 25 312 0.0 9.7 0.00 0.00 0.00 56 1014.0
20260508003312 25 313 0.0 9.7 0.00 0.00 0.00 56 1014.0
20260508003104 25 257 0.0 8.0 0.00 0.00 0.00 57 1014.0
20260508002711 25 256 1.6 8.0 0.00 0.00 0.00 55 1014.1
20260508002458 25 254 1.6 8.0 0.00 0.00 0.00 55 1014.1
20260508002256 25 250 0.0 8.0 0.00 0.00 0.00 55 1014.1
20260508002055 25 169 0.0 8.0 0.00 0.00 0.00 56 1014.0
20260508001848 25 211 0.0 8.0 0.00 0.00 0.00 55 1014.1
20260508001641 25 180 0.0 8.0 0.00 0.00 0.00 55 1014.1
20260508001437 25 180 0.0 8.0 0.00 0.00 0.00 54 1014.1
20260508001234 25 213 1.6 8.0 0.00 0.00 0.00 54 1014.1
20260508001030 25 212 1.6 8.0 0.00 0.00 0.00 54 1014.2
20260508000822 25 212 1.6 8.0 0.00 0.00 0.00 54 1014.1
20260508000620 25 225 1.6 8.0 0.00 0.00 0.00 53 1014.2
20260508000413 26 275 1.6 8.0 0.00 0.00 0.00 54 1014.2
20260508000026 25 279 1.6 8.0 0.00 0.00 0.00 54 1014.2
20260507235822 25 211 1.6 8.0 0.00 0.00 0.00 54 1014.2
20260507235609 25 188 0.0 8.0 0.00 0.00 0.00 56 1014.2
20260507235223 25 155 0.0 8.0 0.00 0.00 0.00 55 1014.2
20260507235014 25 178 0.0 8.0 0.00 0.00 0.00 53 1014.2
20260507234618 25 265 0.0 8.0 0.00 0.00 0.00 54 1014.3
20260507234406 25 265 1.6 8.0 0.00 0.00 0.00 54 1014.3
20260507234155 25 208 1.6 8.0 0.00 0.00 0.00 54 1014.2
20260507233946 25 350 1.6 6.4 0.00 0.00 0.00 54 1014.1
20260507233735 25 289 0.0 6.4 0.00 0.00 0.00 53 1014.2
20260507233523 25 288 0.0 11.3 0.00 0.00 0.00 55 1014.2
20260507233313 25 292 1.6 11.3 0.00 0.00 0.00 54 1014.2
20260507233106 25 250 1.6 11.3 0.00 0.00 0.00 54 1014.3
20260507232901 25 250 1.6 11.3 0.00 0.00 0.00 54 1014.3
20260507232658 25 209 3.2 11.3 0.00 0.00 0.00 54 1014.3
20260507232454 25 222 1.6 11.3 0.00 0.00 0.00 53 1014.4
20260507232251 25 232 3.2 11.3 0.00 0.00 0.00 54 1014.4
20260507232048 25 278 1.6 11.3 0.00 0.00 0.00 52 1014.3
20260507231841 25 260 1.6 11.3 0.00 0.00 0.00 54 1014.3
20260507231638 25 259 1.6 9.7 0.00 0.00 0.00 54 1014.4
20260507231433 25 305 1.6 9.7 0.00 0.00 0.00 53 1014.5
20260507231226 25 290 1.6 8.0 0.00 0.00 0.00 53 1014.5
20260507231014 25 215 1.6 8.0 0.00 0.00 0.00 53 1014.4
20260507230804 25 223 1.6 8.0 0.00 0.00 0.00 52 1014.6
20260507230552 26 280 0.0 6.4 0.00 0.00 0.00 53 1014.6
20260507230348 26 277 0.0 4.8 0.00 0.00 0.00 52 1014.6
20260507230142 25 264 0.0 4.8 0.00 0.00 0.00 54 1014.6
20260507225933 25 267 0.0 4.8 0.00 0.00 0.00 53 1014.6
20260507225729 25 248 0.0 4.8 0.00 0.00 0.00 54 1014.6
20260507225522 25 201 0.0 8.0 0.00 0.00 0.00 54 1014.6
20260507225312 25 198 0.0 8.0 0.00 0.00 0.00 54 1014.6
20260507225100 25 205 0.0 8.0 0.00 0.00 0.00 53 1014.7
20260507224852 25 205 0.0 8.0 0.00 0.00 0.00 54 1014.7
20260507224648 25 215 0.0 8.0 0.00 0.00 0.00 53 1014.7
20260507224259 25 250 0.0 11.3 0.00 0.00 0.00 54 1014.8
20260507224057 25 290 0.0 11.3 0.00 0.00 0.00 53 1014.8
20260507223844 25 278 1.6 11.3 0.00 0.00 0.00 54 1014.8
20260507223643 25 279 1.6 11.3 0.00 0.00 0.00 52 1014.8
20260507223431 25 286 3.2 9.7 0.00 0.00 0.00 54 1014.9
20260507223225 25 197 1.6 9.7 0.00 0.00 0.00 53 1015.0
20260507222831 25 286 1.6 9.7 0.00 0.00 0.00 52 1015.0
20260507222627 25 184 0.0 9.7 0.00 0.00 0.00 52 1014.9
20260507222420 25 234 0.0 3.2 0.00 0.00 0.00 53 1014.9
20260507222023 25 234 1.6 0.0 0.00 0.00 0.00 50 1015.1
20260507221813 25 234 1.6 11.3 0.00 0.00 0.00 53 1015.2
20260507221606 25 279 1.6 11.3 0.00 0.00 0.00 54 1015.1
20260507221355 25 267 1.6 9.7 0.00 0.00 0.00 53 1015.0
20260507221143 25 284 1.6 9.7 0.00 0.00 0.00 52 1015.1
20260507220748 25 196 3.2 9.7 0.00 0.00 0.00 52 1015.2
20260507220542 25 153 3.2 11.3 0.00 0.00 0.00 51 1015.1
20260507220329 25 170 3.2 11.3 0.00 0.00 0.00 51 1015.2
20260507220116 25 190 3.2 11.3 0.00 0.00 0.00 50 1015.2
20260507215904 25 218 1.6 11.3 0.00 0.00 0.00 50 1015.2
20260507215659 25 161 0.0 11.3 0.00 0.00 0.00 52 1015.2
20260507215450 25 273 0.0 11.3 0.00 0.00 0.00 51 1015.3
20260507215246 25 273 1.6 11.3 0.00 0.00 0.00 50 1015.4
20260507215041 25 287 1.6 11.3 0.00 0.00 0.00 51 1015.3
20260507214835 25 287 1.6 11.3 0.00 0.00 0.00 51 1015.3
20260507214626 25 205 1.6 8.0 0.00 0.00 0.00 52 1015.4
20260507214418 25 186 1.6 8.0 0.00 0.00 0.00 51 1015.4
20260507214212 25 199 1.6 8.0 0.00 0.00 0.00 50 1015.5
20260507214006 25 170 0.0 8.0 0.00 0.00 0.00 50 1015.5
20260507213759 25 294 1.6 8.0 0.00 0.00 0.00 52 1015.4
20260507213548 25 274 1.6 8.0 0.00 0.00 0.00 51 1015.5